GW0149 Weather Reports


Display with metric or nautical units.
time (UTC)temp
F
wind
direction
speed
MPH
gust
MPH
rain 1hr
in
rain 24hr
in
rain mn
in
humidity
%
barometer
mb
20260906103130 73 145 0.0 2.0 0.00 0.00 0.00 99 1016.3
20260906102625 73 120 1.0 2.0 0.00 0.00 0.00 99 1016.1
20260906102120 73 114 2.0 2.0 0.00 0.00 0.00 99 1016.2
20260906101614 73 140 0.0 2.0 0.00 0.00 0.00 99 1016.2
20260906101109 72 132 2.0 2.0 0.00 0.00 0.00 99 1016.3
20260906100605 72 172 0.0 1.0 0.00 0.00 0.00 99 1016.0
20260906100105 72 117 1.0 2.0 0.00 0.00 0.00 99 1015.8
20260906095604 72 147 2.0 2.0 0.00 0.00 0.00 99 1016.0
20260906095100 72 135 2.0 2.0 0.00 0.00 0.00 99 1015.8
20260906094559 72 126 0.0 1.0 0.00 0.00 0.00 99 1015.8
20260906094055 72 103 0.0 0.0 0.00 0.00 0.00 99 1015.7
20260906093550 72 105 0.0 1.0 0.00 0.00 0.00 99 1015.7
20260906093045 72 120 0.0 1.0 0.00 0.00 0.00 99 1015.9
20260906092540 72 114 0.0 0.0 0.00 0.00 0.00 99 1015.7
20260906092035 72 180 0.0 1.0 0.00 0.00 0.00 99 1015.6
20260906091531 72 157 0.0 1.0 0.00 0.00 0.00 99 1015.7
20260906091027 72 131 0.0 2.0 0.00 0.00 0.00 99 1015.7
20260906090522 72 106 0.0 2.0 0.00 0.00 0.00 99 1015.6
20260906090017 72 120 0.0 1.0 0.00 0.00 0.00 99 1015.8
20260906085516 73 117 1.0 2.0 0.00 0.00 0.00 99 1015.7
20260906085015 72 126 0.0 1.0 0.00 0.00 0.00 99 1015.6
20260906084510 72 114 0.0 1.0 0.00 0.00 0.00 99 1015.8
20260906084009 72 120 0.0 2.0 0.00 0.00 0.00 99 1015.7
20260906083505 72 131 2.0 2.0 0.00 0.00 0.00 99 1015.6
20260906083004 72 119 2.0 2.0 0.00 0.00 0.00 99 1015.7
20260906082459 72 131 0.0 2.0 0.00 0.00 0.00 99 1015.3
20260906081955 72 140 2.0 2.0 0.00 0.00 0.00 99 1015.5
20260906081450 72 121 2.0 2.0 0.00 0.00 0.00 99 1015.4
20260906080946 72 114 2.0 2.0 0.00 0.00 0.00 99 1015.2
20260906080442 72 123 2.0 2.0 0.00 0.00 0.00 99 1015.3
20260906075937 73 126 1.0 2.0 0.00 0.00 0.00 99 1015.3
20260906075431 73 120 1.0 2.0 0.00 0.00 0.00 99 1015.1
20260906074926 73 144 0.0 2.0 0.00 0.00 0.00 99 1015.0
20260906074421 73 127 2.0 2.0 0.00 0.00 0.00 99 1015.2
20260906073920 73 120 0.0 1.0 0.00 0.00 0.00 99 1015.1
20260906073415 73 120 1.0 2.0 0.00 0.00 0.00 99 1015.0
20260906072911 73 132 2.0 2.0 0.00 0.00 0.00 99 1015.3
20260906072406 73 124 2.0 2.0 0.00 0.00 0.00 99 1015.1
20260906071902 72 139 0.0 2.0 0.00 0.00 0.00 99 1015.2
20260906071357 73 123 2.0 2.0 0.00 0.00 0.00 99 1015.1
20260906070853 73 135 0.0 2.0 0.00 0.00 0.00 99 1015.1
20260906070349 73 135 2.0 2.0 0.00 0.00 0.00 99 1015.3
20260906065844 73 126 1.0 2.0 0.00 0.00 0.00 99 1015.3
20260906065339 73 117 0.0 2.0 0.00 0.00 0.00 99 1015.3
20260906064834 73 151 0.0 2.0 0.00 0.00 0.00 99 1015.3
20260906064330 73 125 2.0 2.0 0.00 0.00 0.00 99 1015.3
20260906063825 73 111 0.0 1.0 0.00 0.00 0.00 99 1015.3
20260906063320 73 126 0.0 2.0 0.00 0.00 0.00 99 1015.3
20260906062815 73 188 0.0 1.0 0.00 0.00 0.00 99 1015.1
20260906062314 73 157 0.0 2.0 0.00 0.00 0.00 99 1015.3
20260906061810 73 180 0.0 1.0 0.00 0.00 0.00 99 1015.4
20260906061306 73 120 0.0 2.0 0.00 0.00 0.00 99 1015.4
20260906060801 73 124 2.0 2.0 0.00 0.00 0.00 99 1015.5
20260906060259 73 99 0.0 0.0 0.00 0.00 0.00 99 1015.5
20260906055754 73 106 0.0 0.0 0.00 0.00 0.00 99 1015.4
20260906055249 73 180 0.0 1.0 0.00 0.00 0.00 99 1015.5
20260906054745 73 165 0.0 1.0 0.00 0.00 0.00 99 1015.6
20260906054240 73 188 0.0 2.0 0.00 0.00 0.00 99 1015.7
20260906053737 73 112 2.0 2.0 0.00 0.00 0.00 99 1015.4
20260906053232 73 135 0.0 2.0 0.00 0.00 0.00 99 1015.6
20260906052727 73 128 2.0 3.0 0.00 0.00 0.00 99 1015.5
20260906052223 73 124 2.0 3.0 0.00 0.00 0.00 99 1015.5
20260906051720 73 114 1.0 2.0 0.00 0.00 0.00 99 1015.6
20260906051219 73 120 0.0 2.0 0.00 0.00 0.00 99 1015.6
20260906050715 73 128 2.0 2.0 0.00 0.00 0.00 99 1015.8
20260906050210 73 99 0.0 1.0 0.00 0.00 0.00 99 1015.6
20260906045708 73 123 0.0 2.0 0.00 0.00 0.00 99 1015.7
20260906045203 73 140 2.0 2.0 0.00 0.00 0.00 99 1015.7
20260906044659 73 140 0.0 2.0 0.00 0.00 0.00 99 1015.8
20260906044154 73 112 0.0 2.0 0.00 0.00 0.00 99 1015.6
20260906043650 73 135 2.0 2.0 0.00 0.00 0.00 99 1015.7
20260906043146 73 119 2.0 2.0 0.00 0.00 0.00 99 1015.7
20260906042645 74 120 2.0 3.0 0.00 0.00 0.00 99 1015.8
20260906042139 74 145 1.0 2.0 0.00 0.00 0.00 99 1015.8
20260906041635 74 114 1.0 2.0 0.00 0.00 0.00 99 1015.7
20260906041130 74 123 2.0 2.0 0.00 0.00 0.00 99 1015.9
20260906040626 74 135 2.0 2.0 0.00 0.00 0.00 99 1015.7
20260906040121 74 102 0.0 3.0 0.00 0.00 0.00 99 1015.8
20260906035616 74 135 2.0 3.0 0.00 0.00 0.00 99 1015.8
20260906035112 74 120 1.0 2.0 0.00 0.00 0.00 99 1015.9
20260906034612 74 111 1.0 2.0 0.00 0.00 0.00 99 1015.9
20260906034106 74 120 0.0 2.0 0.00 0.00 0.00 99 1016.1
20260906033602 74 114 2.0 2.0 0.00 0.00 0.00 99 1016.1
20260906033057 74 132 2.0 2.0 0.00 0.00 0.00 99 1016.1
20260906032553 74 128 2.0 2.0 0.00 0.00 0.00 99 1016.1
20260906032048 74 120 0.0 2.0 0.00 0.00 0.00 99 1016.2
20260906031543 74 126 0.0 2.0 0.00 0.00 0.00 99 1016.2
20260906031039 74 128 2.0 3.0 0.00 0.00 0.00 99 1016.2
20260906030538 74 131 2.0 2.0 0.00 0.00 0.00 99 1016.2
20260906030037 74 151 0.0 1.0 0.00 0.00 0.00 99 1016.1
20260906025532 74 162 1.0 1.0 0.00 0.00 0.00 99 1016.3
20260906025030 74 157 0.0 2.0 0.00 0.00 0.00 99 1016.4
20260906024525 74 120 2.0 2.0 0.00 0.00 0.00 99 1016.3
20260906024020 74 144 2.0 2.0 0.00 0.00 0.00 99 1016.1
20260906023516 74 139 2.0 2.0 0.00 0.00 0.00 99 1016.2
20260906023011 74 126 0.0 2.0 0.00 0.00 0.00 99 1016.1
20260906022506 74 120 0.0 1.0 0.00 0.00 0.00 99 1016.1
20260906022001 75 128 2.0 2.0 0.00 0.00 0.00 99 1016.0
20260906021456 75 131 0.0 2.0 0.00 0.00 0.00 99 1016.1
20260906020951 75 132 2.0 3.0 0.00 0.00 0.00 99 1016.2
20260906020444 75 127 2.0 2.0 0.00 0.00 0.00 99 1016.1
20260906015938 75 172 0.0 0.0 0.00 0.00 0.00 99 1016.0
20260906015433 75 165 0.0 1.0 0.00 0.00 0.00 99 1016.0
20260906014933 75 157 0.0 1.0 0.00 0.00 0.00 99 1015.9
20260906014432 75 126 0.0 0.0 0.00 0.00 0.00 99 1015.9
20260906013929 74 114 0.0 1.0 0.00 0.00 0.00 99 1015.9
20260906013424 74 135 2.0 2.0 0.00 0.00 0.00 99 1015.8
20260906012920 74 180 0.0 2.0 0.00 0.00 0.00 99 1015.8
20260906012420 75 166 0.0 1.0 0.00 0.00 0.00 99 1015.5
20260906011919 75 120 0.0 0.0 0.00 0.00 0.00 99 1015.6
20260906011414 75 120 0.0 0.0 0.00 0.00 0.00 99 1015.5
20260906010910 75 120 0.0 1.0 0.00 0.00 0.00 99 1015.5
20260906010405 75 165 0.0 1.0 0.00 0.00 0.00 99 1015.6
20260906005901 75 151 0.0 1.0 0.00 0.00 0.00 99 1015.6
20260906005400 75 126 0.0 2.0 0.00 0.00 0.00 99 1015.5
20260906004858 76 126 0.0 2.0 0.00 0.00 0.00 99 1015.4
20260906004353 76 114 2.0 2.0 0.00 0.00 0.00 99 1015.3
20260906003849 76 124 2.0 2.0 0.00 0.00 0.00 99 1015.3
20260906003344 76 127 0.0 3.0 0.00 0.00 0.00 99 1015.3
20260906002840 76 125 2.0 2.0 0.00 0.00 0.00 99 1015.3
20260906002339 77 114 1.0 2.0 0.00 0.00 0.00 99 1015.4
20260906001835 77 124 2.0 2.0 0.00 0.00 0.00 99 1015.5
20260906001330 77 114 2.0 2.0 0.00 0.00 0.00 99 1015.3
20260906000825 77 131 2.0 2.0 0.00 0.00 0.00 99 1015.6
20260906000320 77 120 0.0 0.0 0.00 0.00 0.00 99 1015.3
20260905235819 77 106 1.0 1.0 0.00 0.00 0.00 99 1015.5
20260905235314 77 126 1.0 1.0 0.00 0.00 0.00 99 1015.4
20260905234810 77 131 0.0 2.0 0.00 0.00 0.00 99 1015.4
20260905234305 78 120 0.0 1.0 0.00 0.00 0.00 99 1015.5
20260905233759 78 114 0.0 0.0 0.00 0.00 0.00 99 1015.5
20260905233254 78 117 0.0 1.0 0.00 0.00 0.00 99 1015.5
20260905232753 78 120 0.0 0.0 0.00 0.00 0.00 99 1015.5
20260905232249 77 111 0.0 1.0 0.00 0.00 0.00 99 1015.5
20260905231745 77 120 0.0 1.0 0.00 0.00 0.00 99 1015.6
20260905231240 77 154 0.0 0.0 0.00 0.00 0.00 99 1015.5
20260905230737 77 154 0.0 0.0 0.00 0.00 0.00 99 1015.4
20260905230234 77 120 0.0 1.0 0.00 0.00 0.00 99 1015.3
20260905225734 77 126 0.0 2.0 0.00 0.00 0.00 99 1015.3
20260905225229 77 106 1.0 2.0 0.00 0.00 0.00 99 1015.1
20260905224728 77 102 2.0 2.0 0.00 0.00 0.00 99 1015.1
20260905224224 77 151 0.0 2.0 0.00 0.00 0.00 99 1015.2
20260905223720 77 123 2.0 2.0 0.00 0.00 0.00 99 1015.1
20260905223217 78 126 0.0 1.0 0.00 0.00 0.00 99 1015.2
20260905222712 78 157 0.0 2.0 0.00 0.00 0.00 99 1015.3
20260905222211 78 126 0.0 1.0 0.00 0.00 0.00 99 1015.3
20260905221707 78 124 2.0 2.0 0.00 0.00 0.00 99 1015.3
20260905221204 79 126 0.0 2.0 0.00 0.00 0.00 99 1015.5
20260905220659 79 99 0.0 2.0 0.00 0.00 0.00 99 1015.5
20260905220155 79 123 0.0 0.0 0.00 0.00 0.00 99 1015.5
20260905215654 79 126 0.0 1.0 0.00 0.00 0.00 99 1015.7
20260905215150 78 131 0.0 2.0 0.00 0.00 0.00 99 1015.6
20260905214646 78 127 2.0 2.0 0.00 0.00 0.00 99 1015.7
20260905214141 78 127 2.0 2.0 0.00 0.00 0.00 99 1015.7
20260905213636 78 106 2.0 3.0 0.00 0.00 0.00 99 1015.8
20260905213132 79 154 1.0 3.0 0.00 0.00 0.00 99 1015.9
20260905212627 79 187 2.0 2.0 0.00 0.00 0.00 99 1016.0
20260905212126 78 143 2.0 2.0 0.00 0.00 0.00 99 1016.0
20260905211621 78 135 2.0 3.0 0.00 0.00 0.00 99 1016.0
20260905211117 78 144 2.0 3.0 0.00 0.00 0.00 99 1016.2
20260905210613 78 188 0.0 2.0 0.00 0.00 0.00 99 1016.3
20260905210108 78 139 2.0 3.0 0.00 0.00 0.00 99 1016.2
20260905205607 78 252 0.0 4.0 0.00 0.00 0.00 99 1016.2
20260905205107 80 356 6.0 20.0 0.00 0.00 0.00 98 1016.5
20260905204606 86 290 0.0 10.0 0.00 0.00 0.00 81 1016.0
20260905204101 88 125 2.0 11.0 0.00 0.00 0.00 77 1015.7
20260905203556 89 66 0.0 3.0 0.00 0.00 0.00 80 1015.7
20260905203051 90 135 2.0 2.0 0.00 0.00 0.00 77 1015.4
20260905202547 91 151 1.0 2.0 0.00 0.00 0.00 75 1015.3
20260905202042 93 139 2.0 2.0 0.00 0.00 0.00 71 1015.4
20260905201538 93 270 3.0 3.0 0.00 0.00 0.00 68 1015.5
20260905201037 93 239 2.0 2.0 0.00 0.00 0.00 66 1015.6
20260905200533 93 325 1.0 4.0 0.00 0.00 0.00 66 1015.7
20260905200032 93 348 1.0 4.0 0.00 0.00 0.00 65 1015.7
20260905195526 94 290 3.0 5.0 0.00 0.00 0.00 63 1015.6
20260905195022 96 14 0.0 3.0 0.00 0.00 0.00 63 1015.7
20260905194521 96 0 2.0 3.0 0.00 0.00 0.00 63 1015.9
20260905194015 94 353 0.0 2.0 0.00 0.00 0.00 64 1015.9
20260905193510 95 233 3.0 5.0 0.00 0.00 0.00 64 1016.0
20260905193006 94 283 1.0 4.0 0.00 0.00 0.00 66 1015.8
20260905192501 94 221 3.0 5.0 0.00 0.00 0.00 65 1015.8
20260905191957 94 239 6.0 6.0 0.00 0.00 0.00 67 1016.1
20260905191455 93 124 0.0 3.0 0.00 0.00 0.00 69 1015.9
20260905190954 92 270 2.0 5.0 0.00 0.00 0.00 69 1016.1
20260905190452 93 303 3.0 5.0 0.00 0.00 0.00 70 1016.1
20260905185951 92 222 3.0 5.0 0.00 0.00 0.00 69 1016.3
20260905185447 92 216 2.0 3.0 0.00 0.00 0.00 70 1016.3
20260905184945 91 195 1.0 3.0 0.00 0.00 0.00 74 1016.4
20260905184440 91 270 2.0 4.0 0.00 0.00 0.00 74 1016.7
20260905183939 90 235 3.0 5.0 0.00 0.00 0.00 75 1016.6
20260905183433 92 0 4.0 5.0 0.00 0.00 0.00 74 1016.7
20260905182929 92 252 3.0 4.0 0.00 0.00 0.00 73 1016.8
20260905182428 91 307 4.0 7.0 0.00 0.00 0.00 76 1016.8
20260905181924 90 266 2.0 5.0 0.00 0.00 0.00 74 1017.0
20260905181418 91 290 5.0 5.0 0.00 0.00 0.00 75 1017.0
20260905180917 90 303 2.0 5.0 0.00 0.00 0.00 75 1017.2
20260905180413 91 302 3.0 4.0 0.00 0.00 0.00 74 1017.1
20260905175913 91 270 0.0 3.0 0.00 0.00 0.00 73 1017.3
20260905175412 91 334 1.0 7.0 0.00 0.00 0.00 74 1017.2
20260905174907 93 210 3.0 3.0 0.00 0.00 0.00 72 1017.3
20260905174403 91 291 0.0 3.0 0.00 0.00 0.00 73 1017.4
20260905173858 91 118 4.0 4.0 0.00 0.00 0.00 74 1017.4
20260905173355 91 90 1.0 5.0 0.00 0.00 0.00 79 1017.5
20260905172849 89 337 0.0 3.0 0.00 0.00 0.00 76 1017.6
20260905172347 90 348 4.0 4.0 0.00 0.00 0.00 76 1017.6
20260905171843 90 169 2.0 3.0 0.00 0.00 0.00 75 1017.5
20260905171340 89 254 2.0 3.0 0.00 0.00 0.00 77 1017.8
20260905170836 89 127 2.0 2.0 0.00 0.00 0.00 78 1017.7
20260905170332 89 121 3.0 5.0 0.00 0.00 0.00 77 1017.8
20260905165831 88 236 4.0 5.0 0.00 0.00 0.00 77 1017.9
20260905165327 89 117 2.0 4.0 0.00 0.00 0.00 76 1018.1
20260905164826 89 4 0.0 2.0 0.00 0.00 0.00 78 1018.4
20260905164321 88 257 3.0 4.0 0.00 0.00 0.00 80 1018.2
20260905163817 88 297 1.0 3.0 0.00 0.00 0.00 79 1018.3
20260905163313 89 206 2.0 4.0 0.00 0.00 0.00 79 1018.3
20260905162809 87 29 2.0 5.0 0.00 0.00 0.00 81 1018.4
20260905162305 87 240 5.0 7.0 0.00 0.00 0.00 79 1018.5
20260905161757 89 221 2.0 4.0 0.00 0.00 0.00 81 1018.6
20260905161256 89 236 3.0 4.0 0.00 0.00 0.00 78 1018.4
20260905160755 88 112 3.0 3.0 0.00 0.00 0.00 81 1018.5
20260905160249 88 117 2.0 2.0 0.00 0.00 0.00 80 1018.5
20260905155744 86 236 0.0 3.0 0.00 0.00 0.00 80 1018.7
20260905155243 86 346 1.0 3.0 0.00 0.00 0.00 85 1018.5
20260905154737 86 336 2.0 6.0 0.00 0.00 0.00 82 1018.6
20260905154233 86 0 0.0 3.0 0.00 0.00 0.00 83 1018.7
20260905153728 84 0 1.0 6.0 0.00 0.00 0.00 84 1018.5
20260905153224 84 282 4.0 6.0 0.00 0.00 0.00 84 1018.7
20260905152719 84 304 0.0 5.0 0.00 0.00 0.00 85 1018.4
20260905152219 85 270 0.0 2.0 0.00 0.00 0.00 84 1018.5
20260905151713 85 155 3.0 4.0 0.00 0.00 0.00 83 1018.4
20260905151209 84 263 0.0 3.0 0.00 0.00 0.00 84 1018.4
20260905150704 83 337 1.0 5.0 0.00 0.00 0.00 86 1018.2
20260905150203 83 279 3.0 4.0 0.00 0.00 0.00 88 1018.3
20260905145701 83 0 2.0 5.0 0.00 0.00 0.00 87 1018.5
20260905145155 83 345 0.0 3.0 0.00 0.00 0.00 86 1018.5
20260905144655 83 270 0.0 4.0 0.00 0.00 0.00 87 1018.4
20260905144155 84 297 0.0 0.0 0.00 0.00 0.00 87 1018.5
20260905143654 83 29 1.0 4.0 0.00 0.00 0.00 90 1018.3
20260905143149 84 83 0.0 4.0 0.00 0.00 0.00 87 1018.3
20260905142648 82 254 0.0 3.0 0.00 0.00 0.00 89 1018.3
20260905142148 82 5 2.0 2.0 0.00 0.00 0.00 89 1018.3
20260905141643 83 320 4.0 4.0 0.00 0.00 0.00 89 1018.2
20260905141139 83 145 0.0 2.0 0.00 0.00 0.00 88 1018.3
20260905140634 82 355 2.0 2.0 0.00 0.00 0.00 90 1018.3
20260905140133 81 139 2.0 3.0 0.00 0.00 0.00 92 1018.4
20260905135628 79 15 0.0 0.0 0.00 0.00 0.00 97 1018.3
20260905135124 78 90 1.0 3.0 0.00 0.00 0.00 99 1018.3
20260905134618 78 98 0.0 2.0 0.00 0.00 0.00 99 1018.3
20260905134117 76 0 1.0 4.0 0.00 0.00 0.00 99 1018.4
20260905133613 77 355 0.0 3.0 0.00 0.00 0.00 99 1018.2
20260905133113 76 354 1.0 2.0 0.00 0.00 0.00 99 1018.3
20260905132612 75 0 0.0 3.0 0.00 0.00 0.00 99 1018.3
20260905132107 75 12 0.0 1.0 0.00 0.00 0.00 99 1018.2
20260905131603 77 90 0.0 1.0 0.00 0.00 0.00 99 1018.2
20260905131058 75 90 0.0 0.0 0.00 0.00 0.00 99 1018.1
20260905130557 74 99 0.0 2.0 0.00 0.00 0.00 99 1018.3
20260905130052 74 123 2.0 2.0 0.00 0.00 0.00 99 1018.3
20260905125551 73 120 0.0 2.0 0.00 0.00 0.00 99 1018.2
20260905125047 73 114 0.0 0.0 0.00 0.00 0.00 99 1018.3
20260905124543 73 114 0.0 2.0 0.00 0.00 0.00 99 1018.2
20260905124039 72 120 1.0 2.0 0.00 0.00 0.00 99 1018.3
20260905123534 72 117 0.0 2.0 0.00 0.00 0.00 99 1018.4
20260905123031 72 114 2.0 2.0 0.00 0.00 0.00 99 1018.4
20260905122530 72 120 0.0 1.0 0.00 0.00 0.00 99 1018.2
20260905122025 72 117 0.0 0.0 0.00 0.00 0.00 99 1017.9
20260905121521 72 114 2.0 2.0 0.00 0.00 0.00 99 1018.0
20260905121021 72 102 2.0 2.0 0.00 0.00 0.00 99 1018.1
20260905120515 72 115 2.0 2.0 0.00 0.00 0.00 99 1018.0
20260905120010 72 150 2.0 2.0 0.00 0.00 0.00 99 1018.0
20260905115509 72 117 0.0 1.0 0.00 0.00 0.00 99 1017.9
20260905115004 72 131 2.0 2.0 0.00 0.00 0.00 99 1018.0
20260905114504 71 106 0.0 1.0 0.00 0.00 0.00 99 1018.0
20260905114003 72 109 1.0 2.0 0.00 0.00 0.00 99 1017.9
20260905113458 72 154 0.0 1.0 0.00 0.00 0.00 99 1018.0
20260905112953 72 105 1.0 2.0 0.00 0.00 0.00 99 1017.9
20260905112448 72 111 1.0 2.0 0.00 0.00 0.00 99 1017.8
20260905111943 72 120 1.0 2.0 0.00 0.00 0.00 99 1017.7
20260905111438 72 106 1.0 2.0 0.00 0.00 0.00 99 1017.7
20260905110932 72 112 2.0 2.0 0.00 0.00 0.00 99 1017.8
20260905110426 72 106 2.0 2.0 0.00 0.00 0.00 99 1017.8
20260905105920 72 97 1.0 1.0 0.00 0.00 0.00 99 1017.8
20260905105420 72 140 0.0 2.0 0.00 0.00 0.00 99 1018.1
20260905104920 72 114 0.0 1.0 0.00 0.00 0.00 99 1017.8
20260905104416 72 126 0.0 0.0 0.00 0.00 0.00 99 1018.1
20260905103910 72 99 0.0 1.0 0.00 0.00 0.00 99 1017.9
20260905103406 72 120 0.0 2.0 0.00 0.00 0.00 99 1017.8